Tracking 19795 objects as of 20-Jul-2019
HD Live streaming from Space Station
objects crossing your sky now

NOAA 16 DEB

Track NOAA 16 DEB now!
10-day predictions


NORAD ID: 42422
Int'l Code: 2000-055TS
Perigee: 840.9 km
Apogee: 862.2 km
Inclination: 98.9 °
Period: 101.8 minutes
Semi major axis: 7222 km
RCS: Unknown
Launch date: September 21, 2000
Source: United States (US)
Launch site: AIR FORCE WESTERN TEST RANGE (AFWTR)

Note: This is SATELLITE DEBRIS
aabbcc
Your satellite tracking list
Your tracking list is empty




NASA's NSSDC Master Catalog

Two Line Element Set (TLE):
1 42422U 00055TS  19200.68749855 +.00000420 +00000-0 +24267-3 0  9998
2 42422 098.8603 279.8940 0014737 355.5371 004.5668 14.14385495168604
Source of the keplerian elements: AFSPC